EHI
1 2 2 3 3 2 1 0 0 1 2 3 3 3 1 0 1 1 1 0 0 0 0 0 0 0 0 0 0 0 0 0 0 0 0 0 0 0 0 0 0 0 0
0 1 1 2 3 2 1 1 1 1 1 2 2 2 1 0 0 0 0 0 0 0 0 0 0 0 0 0 0 0 0 0 0 0 0 0 0 0 0 0 0 0 0
0 0 0 1 1 2 2 2 2 2 1 1 1 1 1 0 0 0 0 0 0 0 0 0 0 0 0 0 0 0 0 0 0 0 0 0 0 0 0 0 0 0 0
0 0 0 0 0 1 1 3 3 2 1 0 0 0 0 0 0 0 0 0 0 0 0 0 0 0 0 0 0 0 0 0 0 0 0 0 0 0 0 0 0 0 0
0 0 0 0 0 0 1 2 3 2 1 0 0 0 0 0 0 0 0 0 0 0 0 0 0 0 0 0 0 0 0 0 0 0 0 0 0 0 0 0 0 0 0
0 0 0 0 0 0 0 1 2 2 1 0 0 0 0 0 0 0 0 0 0 0 0 0 0 0 0 0 0 0 0 0 0 0 0 0 0 0 0 0 0 0 0
0 0 0 0 0 0 0 0 1 1 0 0 0 0 0 0 0 0 0 0 0 0 0 0 0 0 0 0 0 0 0 0 0 0 0 0 0 0 0 0 0 0 0
0 0 0 0 0 0 0 0 0 0 0 0 0 0 0 0 0 0 0 0 0 0 0 0 0 0 0 0 0 0 0 0 0 0 0 0 0 0 0 0 0 0 0
0 0 0 0 0 0 0 0 0 0 0 0 0 0 0 0 0 0 0 0 0 0 0 0 0 0 0 0 0 0 0 0 0 0 0 0 0 0 0 0 0 0 0
0 0 0 0 0 0 0 0 0 0 0 0 0 0 0 0 0 0 0 0 0 0 0 0 0 0 0 0 0 0 0 0 0 0 0 0 0 0 0 0 0 0 0
0 0 0 0 0 0 0 0 0 0 0 0 0 0 0 0 0 0 0 0 0 0 0 0 0 0 0 0 0 0 0 0 0 0 0 0 0 0 0 0 0 0 0
0 0 0 0 0 0 0 0 0 0 0 0 0 0 0 0 0 0 0 0 0 0 0 0 0 0 0 0 0 0 0 0 0 0 0 0 0 0 0 0 0 0 0
0 0 0 0 0 0 0 0 0 0 0 0 0 0 0 0 0 0 0 0 0 0 0 0 0 0 0 0 0 0 0 0 0 0 0 0 0 0 0 0 0 0 0
0 0 0 0 0 0 0 0 0 0 0 0 0 0 0 0 0 0 0 0 0 0 0 0 0 0 0 0 0 0 0 0 0 0 0 0 0 0 0 0 0 0 0
0 0 0 0 0 0 0 0 0 0 0 0 0 0 0 0 0 0 0 0 0 0 0 0 0 0 0 0 0 0 0 0 0 0 0 0 0 0 0 0 0 0 0
0 0 0 0 0 0 0 0 0 0 0 0 0 0 0 0 0 0 0 0 0 0 0 0 0 0 0 0 0 0 0 0 0 0 0 0 0 0 0 0 0 0 0
0 0 0 0 0 0 0 0 0 0 0 0 0 0 0 0 0 0 0 0 0 0 0 0 0 0 0 0 0 0 0 0 0 0 0 0 0 0 0 0 0 0 0
0 0 0 0 0 0 0 0 0 0 0 0 0 0 0 0 0 0 0 0 0 0 0 0 0 0 0 0 0 0 0 0 0 0 0 0 0 0 0 0 0 0 0
0 0 0 0 0 0 0 0 0 0 0 0 0 0 0 0 0 0 0 0 0 0 0 0 0 0 0 0 0 0 0 0 0 0 0 0 0 0 0 0 0 0 0
0 0 0 0 0 0 0 0 0 0 0 0 0 0 0 0 0 0 0 0 0 0 0 0 0 0 0 0 0 0 0 0 0 0 0 0 0 0 0 0 0 0 0
0 0 0 0 0 0 0 0 0 0 0 0 0 0 0 0 0 0 0 0 0 0 0 0 0 0 0 0 0 0 0 0 0 0 0 0 0 0 0 0 0 0 0
0 0 0 0 0 0 0 0 0 0 0 0 0 0 0 0 0 0 0 0 0 0 0 0 0 0 0 0 0 0 0 0 0 0 0 0 0 0 0 0 0 0 0
0 0 0 0 0 0 0 0 0 0 0 0 0 0 0 0 0 0 0 0 0 0 0 0 0 0 0 0 0 0 0 0 0 0 0 0 0 0 0 0 0 0 0
0 0 0 0 0 0 0 0 0 0 0 0 0 0 0 0 0 0 0 0 0 0 0 0 0 0 0 0 0 0 0 0 0 0 0 0 0 0 0 0 0 0 0
0 0 0 0 0 0 0 0 0 0 0 0 0 0 0 0 0 0 0 0 0 0 0 0 0 0 0 0 0 0 0 0 0 0 0 0 0 0 0 0 0 0 0
0 0 0 0 0 0 0 0 0 0 0 0 0 0 0 0 0 0 0 0 0 0 0 0 0 0 0 0 0 0 0 0 0 0 0 0 0 0 0 0 0 0 0
Wind_Speed
5 5 6 6 6 6 6 7 6 7 6 5 4 4 4 3 3 2 3 3 3 3 3 2 2 2 2 2 3 2 3 2 1 1 2 2 2 2 2 1 1 2 2
6 6 6 6 7 7 7 6 7 7 7 5 4 3 4 3 3 2 3 3 3 3 2 3 2 2 2 3 3 2 2 2 1 1 1 1 2 2 1 1 1 1 2
8 7 7 7 8 7 7 6 7 7 7 7 5 4 4 3 3 3 3 2 2 3 3 3 2 2 2 2 2 3 2 2 1 0 1 1 1 1 1 1 0 1 1
7 7 7 8 8 7 7 7 6 7 7 8 7 8 6 5 4 4 3 3 3 3 3 3 2 2 2 2 2 2 2 3 2 1 0 1 1 1 1 2 1 1 2
7 7 7 7 7 7 7 7 7 7 7 8 8 7 6 4 4 4 5 4 3 3 3 3 2 2 2 2 2 2 2 2 2 2 1 1 1 2 2 2 1 1 1
6 7 6 6 6 6 7 7 8 8 8 8 8 8 8 7 7 6 5 4 3 2 3 3 3 3 2 2 2 2 2 2 2 2 2 1 1 1 2 3 3 2 2
6 6 7 7 7 8 8 7 9 8 8 8 8 8 7 7 7 6 5 5 4 3 4 3 3 3 2 2 2 2 2 2 2 2 2 2 2 1 2 2 2 3 2
5 6 7 7 7 8 8 8 9 8 8 7 7 6 6 5 4 5 5 4 3 3 3 4 3 3 3 3 2 2 2 2 3 3 2 2 2 2 2 2 2 3 3
5 5 6 6 7 8 8 8 8 8 8 8 7 7 6 5 5 5 4 3 3 3 4 3 3 3 3 3 3 2 3 3 3 3 3 2 2 2 2 2 3 3 4
5 5 5 6 6 6 7 7 7 7 7 7 6 5 6 5 5 5 5 4 4 3 4 4 4 4 4 4 3 3 3 4 3 2 3 3 2 2 2 3 3 4 4
5 5 5 5 5 6 6 7 6 6 6 6 6 5 5 5 5 4 5 4 4 4 4 4 4 4 4 4 4 4 4 5 4 3 4 4 4 3 3 3 3 4 4
4 4 5 5 6 6 6 6 6 6 5 5 5 5 5 5 5 4 4 4 4 4 4 5 5 5 5 5 5 5 5 5 5 4 4 5 3 4 4 4 4 4 5
4 5 5 5 5 5 6 6 5 5 5 5 5 5 5 5 5 4 4 4 4 4 4 5 5 5 5 5 5 5 5 5 5 5 5 5 5 6 4 5 5 4 4
4 5 4 4 4 4 5 5 5 4 5 5 5 5 5 4 4 4 4 4 4 5 5 5 5 5 5 5 5 5 5 6 6 6 6 6 6 6 6 5 6 5 5
4 4 4 4 4 4 4 4 4 4 4 4 4 4 3 3 3 3 3 4 4 5 5 5 5 5 5 5 6 5 6 6 6 6 6 6 7 7 7 5 6 6 5
4 4 4 4 4 4 4 4 4 4 4 4 4 3 3 3 3 3 3 4 4 4 4 5 5 5 5 6 7 6 6 6 6 6 6 6 7 8 10 11 10 10 8
3 4 4 3 3 3 4 4 4 3 4 4 3 3 3 3 4 4 4 4 4 4 5 5 6 6 7 8 9 9 7 7 7 7 6 5 5 7 7 8 10 11 13
3 3 3 3 2 2 3 3 3 4 4 4 3 3 3 4 4 4 5 5 4 5 5 5 6 6 7 8 10 9 8 7 8 8 8 7 7 7 7 7 8 8 9
2 2 2 2 2 3 3 3 3 4 4 4 3 3 4 4 4 4 5 5 4 5 5 5 6 7 7 8 9 9 6 6 8 8 8 8 8 9 9 9 9 9 8
1 2 2 2 2 2 3 3 3 3 4 3 3 3 4 4 5 5 4 4 4 5 5 5 6 7 7 8 10 10 6 6 6 6 7 9 9 10 10 9 9 9 9
2 2 3 2 2 2 3 3 3 3 3 2 3 3 4 4 4 4 4 4 4 5 5 6 6 7 7 8 10 10 6 6 6 6 6 6 9 11 11 11 9 10 9
2 2 2 2 1 1 2 2 2 2 2 2 3 3 3 3 3 4 4 4 4 5 5 5 6 5 6 7 8 11 11 9 7 7 6 6 8 10 11 10 10 11 9
2 2 2 1 1 0 1 2 2 1 1 2 3 3 3 3 4 4 4 4 4 5 5 5 5 5 4 5 8 10 11 10 8 6 7 8 9 10 9 10 11 9 7
1 1 1 1 1 1 1 2 2 1 2 3 3 3 3 4 4 3 4 4 4 5 5 5 5 5 5 5 4 5 5 7 7 6 6 8 9 8 8 8 7 6 6
1 1 1 0 1 2 2 2 2 2 3 3 4 4 4 4 4 4 4 5 6 6 6 6 5 6 6 6 7 6 5 5 5 5 4 5 5 5 5 5 5 5 5
1 1 1 1 2 2 3 3 2 2 3 3 4 3 3 3 4 4 4 5 7 8 9 10 9 7 9 10 11 11 10 10 9 7 6 6 6 6 6 5 5 5 5
Wind_Direction
214 195 189 177 174 175 178 172 166 159 154 149 151 157 152 145 136 133 133 141 144 144 144 142 142 146 147 140 138 130 122 108 115 139 118 108 102 99 92 75 69 55 36
200 185 180 177 180 179 178 172 173 168 167 160 156 160 147 144 137 141 138 142 148 150 158 155 153 152 149 146 144 144 137 115 127 209 185 187 174 145 90 93 44 15 14
200 186 180 180 181 180 178 175 180 175 170 161 147 140 138 138 147 157 154 153 156 159 163 161 158 159 163 161 165 164 161 153 153 284 270 239 228 157 168 167 170 345 340
202 193 183 181 182 182 179 176 179 176 169 166 168 171 170 167 171 164 159 157 162 163 159 166 162 164 164 162 168 176 184 178 182 165 306 332 348 248 208 180 192 301 314
197 195 190 184 181 177 175 176 175 177 176 176 176 176 173 165 155 155 158 159 161 164 166 172 167 165 161 161 159 167 182 192 197 193 187 183 227 264 259 249 233 256 280
196 196 192 183 178 174 173 174 174 175 176 176 174 176 171 166 162 166 165 163 161 167 175 184 180 177 171 173 174 181 187 194 193 204 206 203 209 231 256 262 265 272 277
187 189 188 183 179 176 172 172 168 169 171 172 175 178 176 173 174 171 171 167 166 179 187 191 192 188 180 178 180 184 190 198 197 208 217 218 228 239 256 262 271 275 284
178 183 183 180 177 171 171 172 172 172 171 173 177 179 179 177 175 176 175 176 177 182 183 191 196 192 186 185 185 188 198 202 202 209 213 218 224 227 236 249 260 266 264
175 176 174 172 170 168 171 173 172 171 173 174 176 177 175 174 177 179 182 180 178 173 181 189 193 195 193 191 189 199 207 208 211 212 215 223 226 233 240 242 246 252 264
172 170 164 165 166 164 165 169 172 170 170 172 176 175 174 175 178 182 184 182 181 182 185 190 197 198 199 200 202 207 214 215 215 218 223 231 234 233 235 235 242 250 261
169 164 156 156 156 155 159 165 168 167 167 169 172 173 172 175 180 185 188 188 186 191 195 197 201 202 204 205 207 212 213 217 217 220 226 237 240 237 237 240 243 246 251
156 154 150 149 152 156 159 164 168 168 168 168 170 172 173 177 184 190 192 190 193 199 201 201 205 208 210 211 214 216 220 222 223 227 231 239 240 244 245 242 244 247 249
148 148 148 151 154 155 157 162 164 164 164 164 167 171 177 184 191 193 192 192 199 204 207 210 212 213 213 214 220 223 228 230 233 234 235 239 239 243 244 246 249 251 251
157 155 158 159 158 158 158 159 160 161 164 166 171 179 185 189 193 194 197 198 203 207 212 216 219 219 218 218 220 224 232 236 239 240 241 242 241 245 246 248 250 253 253
171 167 169 166 163 164 167 169 168 165 167 172 180 187 188 188 192 195 200 204 209 212 214 218 223 223 224 222 221 222 232 237 240 241 243 245 247 252 253 251 251 251 252
194 182 179 178 175 175 175 175 175 169 172 179 187 188 190 195 201 204 205 209 216 219 217 221 225 229 231 224 227 231 236 240 243 246 247 248 246 246 251 253 255 255 255
209 196 192 191 190 185 179 177 173 167 175 183 187 191 195 204 210 209 212 217 221 225 228 230 232 236 234 229 233 237 243 244 245 248 250 251 249 249 252 253 255 256 257
210 199 193 185 182 175 171 166 163 172 182 189 195 199 203 210 213 213 219 224 224 226 230 232 235 239 237 232 239 239 242 245 246 246 247 250 252 249 252 257 260 260 258
213 188 184 176 171 169 162 162 171 181 192 200 204 208 212 218 221 225 229 230 229 232 236 237 236 239 241 233 238 239 243 245 249 251 250 250 253 253 254 257 259 263 265
136 137 138 148 157 156 160 172 184 193 207 215 220 219 220 224 229 234 238 238 234 236 239 242 242 242 245 237 237 239 242 245 250 252 250 247 250 254 253 254 257 260 265
113 117 121 130 141 150 166 181 199 216 225 231 232 233 230 231 234 238 238 236 236 238 242 246 248 246 246 242 239 239 240 240 247 250 252 249 246 255 257 258 258 259 267
104 114 115 103 97 141 171 194 224 235 231 235 239 242 244 242 236 234 239 238 237 240 245 249 253 249 245 243 240 241 242 245 248 251 253 253 250 258 263 263 261 262 266
100 106 108 87 64 96 194 222 260 264 246 248 253 256 255 248 242 239 239 242 240 241 245 246 252 256 253 246 244 245 245 244 251 255 256 260 260 262 263 258 259 259 255
90 94 92 73 16 7 323 290 303 290 257 258 265 263 256 254 250 247 240 239 241 244 248 250 253 257 257 252 242 237 239 239 246 253 254 256 258 257 261 263 258 252 251
72 84 84 4 330 338 327 314 306 287 268 266 263 259 255 253 254 254 254 252 251 249 252 254 254 256 258 255 252 253 247 243 243 251 253 250 248 249 250 252 255 252 249
31 28 355 334 325 324 317 315 303 276 264 265 264 261 257 258 260 264 271 261 253 260 260 262 261 263 262 264 258 257 258 254 247 250 247 247 246 248 251 252 253 252 247